Regional Weather Roundup
Issued by NWS

Home | Current Version | Previous Version | Text Only | Print | Product List | Glossary Off
Versions: 1 2 3 4 5 6 7 8 9 10 11 12 13 14 15 16 17 18 19 20 21 22 23 24 25 26 27 28 29 30 31 32 33 34 35 36 37 38 39 40 41 42 43 44 45 46 47 48 49 50

000
ASUS43 KBIS 261920
RWRND

NORTH DAKOTA REGIONAL WEATHER ROUNDUP
NATIONAL WEATHER SERVICE BISMARCK ND
200 PM CDT THU MAR 26 2015

NOTE: "FAIR" INDICATES FEW OR NO CLOUDS BELOW 12,000 FEET WITH NO
SIGNIFICANT WEATHER AND/OR OBSTRUCTIONS TO VISIBILITY.


NDZ001>003-009>011-017-262000-
NORTHWEST NORTH DAKOTA

CITY           SKY/WX    TMP DP  RH WIND       PRES   REMARKS
WILLISTON      MOSUNNY   41  26  55 SE3       30.19S
MINOT          MOSUNNY   34  20  56 SE6       30.23F
MINOT AFB      MOSUNNY   35  25  67 S5        30.23S
$$

NDZ018>021-031>035-040>046-262000-
SOUTHWEST NORTH DAKOTA

CITY           SKY/WX    TMP DP  RH WIND       PRES   REMARKS
BISMARCK       CLOUDY    36  23  59 E8        30.24R
DICKINSON      CLOUDY    35  30  82 E7        30.16R
GARRISON         N/A     36  23  59 NE3       30.21F
HETTINGER ARPT CLOUDY    32  28  85 E9        30.17S
$$

NDZ004>008-012>016-024-026-027-054-262000-
NORTHEAST NORTH DAKOTA

CITY           SKY/WX    TMP DP  RH WIND       PRES   REMARKS
GRAND FORKS    PTSUNNY   30  14  51 N17       30.29R WCI  18
GRND FRKS AFB  CLOUDY    31  13  48 NE13G23   30.29R
DEVILS LAKE    PTSUNNY   30  12  47 N12       30.27R
$$

NDZ022-023-025-028>030-036>039-047>053-262000-
SOUTHEAST NORTH DAKOTA

CITY           SKY/WX    TMP DP  RH WIND       PRES   REMARKS
FARGO          PTSUNNY   34  11  38 N22G28    30.25R
JAMESTOWN      MOSUNNY   35  11  36 NE9G20    30.23S
$$




USA.gov is the U.S. government's official web portal to all federal, state and local government web resources and services.